TimeEST,TemperatureF,Dew PointF,Humidity,Sea Level PressureIn,VisibilityMPH,Wind Direction,Wind SpeedMPH,Gust SpeedMPH,PrecipitationIn,Events,Conditions,WindDirDegrees,DateUTC
12:53 AM,64.0,63.0,96,29.91,4.0,Variable,3.5,-,0.01,,Overcast,0,2012-12-29 05:53:00
1:00 AM,64.4,62.6,94,29.92,4.0,South,4.6,-,N/A,,Overcast,170,2012-12-29 06:00:00
1:31 AM,66.2,64.4,94,29.90,6.0,South,10.4,-,N/A,,Overcast,190,2012-12-29 06:31:00
1:53 AM,66.9,64.9,93,29.90,5.0,South,8.1,-,N/A,,Overcast,180,2012-12-29 06:53:00
2:53 AM,68.0,66.0,93,29.87,6.0,South,10.4,-,N/A,,Overcast,190,2012-12-29 07:53:00
3:21 AM,69.8,66.2,88,29.88,7.0,South,10.4,-,N/A,,Overcast,190,2012-12-29 08:21:00
3:53 AM,69.1,66.9,93,29.87,7.0,SSW,9.2,-,N/A,,Overcast,210,2012-12-29 08:53:00
4:27 AM,69.8,68.0,94,29.87,7.0,SSW,10.4,-,N/A,,Overcast,210,2012-12-29 09:27:00
4:53 AM,69.1,66.9,93,29.86,7.0,SSW,9.2,-,N/A,,Overcast,200,2012-12-29 09:53:00
5:23 AM,71.6,68.0,88,29.89,8.0,SSW,12.7,-,N/A,,Overcast,210,2012-12-29 10:23:00
5:53 AM,71.1,68.0,90,29.91,9.0,SSW,10.4,-,N/A,,Overcast,210,2012-12-29 10:53:00
6:01 AM,71.6,68.0,88,29.91,8.0,SSW,9.2,19.6,N/A,,Mostly Cloudy,210,2012-12-29 11:01:00
6:38 AM,69.8,68.0,94,29.92,8.0,SSW,9.2,-,0.01,,Overcast,200,2012-12-29 11:38:00
6:53 AM,70.0,68.0,93,29.91,5.0,SSW,9.2,-,0.02,Rain,Rain,200,2012-12-29 11:53:00
7:17 AM,69.8,68.0,94,29.92,7.0,SSW,11.5,-,0.01,Rain,Light Rain,200,2012-12-29 12:17:00
7:53 AM,70.0,68.0,93,29.92,3.0,SSW,11.5,-,0.03,Rain,Light Rain,210,2012-12-29 12:53:00
8:03 AM,71.6,69.8,94,29.92,2.0,SSW,10.4,-,0.03,Rain,Rain,210,2012-12-29 13:03:00
8:11 AM,71.6,69.8,94,29.93,3.0,SW,11.5,-,0.03,Rain,Light Rain,220,2012-12-29 13:11:00
8:33 AM,71.6,69.8,94,29.93,6.0,SW,13.8,24.2,0.03,Rain,Light Rain,220,2012-12-29 13:33:00
8:53 AM,73.0,70.0,90,29.93,7.0,SW,12.7,19.6,0.03,,Mostly Cloudy,230,2012-12-29 13:53:00
9:40 AM,73.4,69.8,88,29.95,10.0,WSW,13.8,23.0,N/A,,Overcast,240,2012-12-29 14:40:00
9:50 AM,73.4,69.8,88,29.96,10.0,West,13.8,23.0,N/A,,Overcast,260,2012-12-29 14:50:00
9:53 AM,73.0,69.1,87,29.96,10.0,West,12.7,23.0,N/A,,Overcast,270,2012-12-29 14:53:00
10:53 AM,70.0,64.0,81,29.97,10.0,West,16.1,24.2,N/A,,Overcast,280,2012-12-29 15:53:00
11:26 AM,71.6,62.6,73,29.96,10.0,WSW,16.1,23.0,N/A,,Scattered Clouds,250,2012-12-29 16:26:00
11:53 AM,73.0,63.0,71,29.95,10.0,West,12.7,21.9,N/A,,Mostly Cloudy,280,2012-12-29 16:53:00
12:53 PM,73.0,61.0,66,29.94,10.0,West,12.7,20.7,N/A,,Mostly Cloudy,280,2012-12-29 17:53:00
1:01 PM,71.6,60.8,69,29.94,10.0,West,16.1,-,N/A,,Mostly Cloudy,280,2012-12-29 18:01:00
1:11 PM,71.6,60.8,69,29.94,10.0,West,18.4,23.0,N/A,,Mostly Cloudy,270,2012-12-29 18:11:00
1:53 PM,71.1,57.9,63,29.94,10.0,WNW,15.0,23.0,N/A,,Partly Cloudy,290,2012-12-29 18:53:00
2:53 PM,69.1,55.9,63,29.94,10.0,West,20.7,27.6,N/A,,Clear,270,2012-12-29 19:53:00
3:53 PM,68.0,50.0,52,29.96,10.0,West,13.8,21.9,N/A,,Clear,260,2012-12-29 20:53:00
4:53 PM,64.9,48.9,56,29.98,10.0,West,15.0,21.9,N/A,,Clear,280,2012-12-29 21:53:00
5:53 PM,60.1,50.0,69,30.01,10.0,West,11.5,19.6,N/A,,Clear,270,2012-12-29 22:53:00
6:53 PM,57.0,48.0,72,30.05,10.0,West,12.7,20.7,N/A,,Clear,280,2012-12-29 23:53:00
7:53 PM,55.9,48.0,75,30.07,10.0,West,12.7,-,N/A,,Clear,280,2012-12-30 00:53:00
8:53 PM,54.0,46.9,77,30.11,10.0,WNW,9.2,16.1,N/A,,Clear,300,2012-12-30 01:53:00
9:53 PM,53.1,45.0,74,30.13,10.0,WNW,10.4,-,N/A,,Clear,300,2012-12-30 02:53:00
10:53 PM,51.1,44.1,77,30.16,10.0,NW,8.1,-,N/A,,Clear,310,2012-12-30 03:53:00
11:53 PM,48.9,39.0,69,30.18,10.0,NW,12.7,-,N/A,,Clear,310,2012-12-30 04:53:00